STARLINK-5178 (54083 NORAD) Tracking and Keplerian Element Data

This shows tracking and keplerian element data for the satellite.

Feedback or suggestion? Click here.




ElementValue
Catalog54083
NameSTARLINK-5178
Epoch Orbit550
Epoch Day325.33334491
Epoch Year2022
RAAN350.8918
Inclination53.2149
Eccentricity0.0003892
Argument of Perigee8.8421
Mean Anonmoly337.8103
Mean Motion15.73172212
Decay Rate9.82E-06
L11 54083U 22136AJ 22325.33334491 .00000982 00000+0 11451-4 0 9992
L22 54083 53.2149 350.8918 0003892 8.8421 337.8103 15.73172212 5501



Live tracking and technical data element details for STARLINK-5178 (NORAD 54083). STARLINK-5178 can be tracked NOW for your location showing map with azimuth and elevation plus other details from your city location.







IsCatalogInMostPopularTable: catalog: 54083, numindb: 1
Update: records affected: 1



GetName: 54083 STARLINK-5178

Hit Count: updated at: Fri, 09 Dec 2022 18:29:04 GMT